Regional Weather Roundup
Issued by NWS

Home | Current Version | Previous Version | Text Only | Print | Product List | Glossary Off
Versions: 1 2 3 4 5 6 7 8 9 10 11 12 13 14 15 16 17 18 19 20 21 22 23 24 25 26 27 28 29

000
ASUS45 KTFX 291010
RWRMT
MONTANA REGIONAL WEATHER ROUNDUP
NATIONAL WEATHER SERVICE GREAT FALLS MT
400 AM MDT FRI APR 29 2016

NOTE: "FAIR" INDICATES FEW OR NO CLOUDS BELOW 12000 FEET WITH NO
SIGNIFICANT WEATHER AND/OR OBSTRUCTIONS TO VISIBILITY.

MTZ001>007-043-291100-
WEST OF THE DIVIDE

CITY           SKY/WX    TMP DP  RH WIND       PRES   REMARKS
KALISPELL      CLOUDY    43  35  73 NW3       29.95F
MISSOULA       CLOUDY    36  33  89 N3        29.98S
BUTTE          CLOUDY    32  26  78 S5        29.95S
MULLAN PASS    PTCLDY    30  25  81 E6        29.92F WCI  24
ANACONDA         N/A     32  28  86 CALM      29.96S
DEER LODGE       N/A     28  25  86 W3        29.97F
EUREKA           N/A     39  34  81 CALM      29.98F
HAMILTON         N/A     37  36  93 CALM      29.95S
LIBBY            N/A     37  34  87 CALM      29.99S
PLAINS           N/A     39  33  79 CALM      29.98S
$$

MTZ008-052>055-291100-
SOUTHWEST MONTANA

CITY           SKY/WX    TMP DP  RH WIND       PRES   REMARKS
BOZEMAN        CLOUDY    34  27  75 W3        29.98S
DILLON         CLOUDY    34  26  72 NE9       29.93S WCI  27
ENNIS          CLOUDY    34  30  86 S6        29.99S WCI  29
THREE FORKS      N/A     31  31 100 CALM      29.97F
TWIN BRIDGES     N/A     35  24  64 N10       29.94S WCI  27
$$

MTZ009-010-012-014-046-048-049-054-291100-
EAST SLOPES AND CENTRAL MONTANA

CITY           SKY/WX    TMP DP  RH WIND       PRES   REMARKS
CUT BANK       CLOUDY    36  34  92 E6        30.01F WCI  31
GREAT FALLS    CLOUDY    36  33  89 E5        29.99S
HELENA         CLOUDY    39  31  72 W5        29.98S
CHOTEAU          N/A     36  36 100 NE6       30.00F WCI  31
CONRAD           N/A     36  36 100 E6        30.03F WCI  31
$$

MTZ011-013-016-021-045-047-050-051-291100-
NORTH CENTRAL MONTANA

CITY           SKY/WX    TMP DP  RH WIND       PRES   REMARKS
HAVRE          CLOUDY    41  36  82 E10       30.06S
LEWISTOWN      CLOUDY    36  31  82 E7        30.02S WCI  30
N BAR RANCH    CLOUDY    34  32  93 SE5       30.05S
CHINOOK          N/A     43  37  81 NE6       30.07F
$$

MTZ017>020-022>027-061-062-291100-
NORTHEAST MONTANA

CITY           SKY/WX    TMP DP  RH WIND       PRES   REMARKS
GLASGOW        CLOUDY    38  34  85 E9        30.12S WCI  31
JORDAN           N/A     39  36  89 E7        30.10S
SIDNEY         CLOUDY    43  30  61 NE7       30.16S
WOLF POINT     MOCLDY    36  32  85 CALM      30.16R
PLENTYWOOD       N/A     37  19  48 NE6       30.16R
POPLAR           N/A     37  30  75 CALM      30.16R
SCOBEY           N/A     37  21  52 CALM      30.12R
$$

MTZ028>42-056>058-291100-
SOUTHCENTRAL AND SOUTHEAST MONTANA

CITY           SKY/WX    TMP DP  RH WIND       PRES   REMARKS
BAKER          CLOUDY    38  34  85 CALM      30.13S
BILLINGS       CLOUDY    35  34  96 N6        30.03S WCI  30
LIVINGSTON     CLOUDY    34  30  85 E9        29.98F WCI  27
MILES CITY     CLOUDY    40  34  79 E7        30.10F
EKALAKA          N/A     35  31  86 CALM      30.07S
FORSYTH          N/A     39  39 100 E7        30.09S
LAUREL           N/A     35  28  76 CALM      30.01S
ROUNDUP          N/A     32  28  85 CALM      29.96F VSB 0
$$

REGIONAL REPORTS...DAKOTAS

CITY           SKY/WX    TMP DP  RH WIND       PRES   REMARKS
WILLISTON      CLOUDY    35  24  64 CALM      30.18R
MINOT          CLOUDY    39  22  50 N3        30.20R
DICKINSON      CLOUDY    36  25  64 E7        30.12S WCI  30
BEACH          CLOUDY    37  37 100 NW5       30.16F
CROSBY           N/A     32  21  64 E5        30.22R
TIOGA            N/A     32  23  69 E8        30.23S WCI  25
WATFORD CITY     N/A     32  25  74 CALM      30.18R
BISMARCK       CLOUDY    37  33  85 NE6       30.17S
GRAND FORKS    MOCLDY    33  27  78 N5        30.19R
FARGO          PTCLDY    37  32  82 E5        30.15S
BUFFALO SD       N/A     38  33  82 N3        30.05S
RAPID CITY     CLOUDY    36  33  89 CALM      30.11R
$$

REGIONAL REPORTS...WYOMING/IDAHO/WASHINGTON

CITY           SKY/WX    TMP DP  RH WIND       PRES   REMARKS
GILLETTE       CLOUDY    35  32  88 SE6       30.05F WCI  30
SHERIDAN       CLOUDY    36  33  89 SW6       30.04F WCI  31
BUFFALO WY       N/A    N/A N/A N/A MISG      30.05R
CODY           CLOUDY    34  30  86 CALM      29.99S
YELLOWSTONE LA   N/A     24  20  84 CALM      29.94F
IDAHO FALLS    CLOUDY    38  29  70 NW5       29.88S
SALMON         CLOUDY    37  32  81 CALM      29.93S
BOISE          CLOUDY    51  38  60 NW13      29.89S
SPOKANE        LGT RAIN  49  39  68 SE5       29.95F
$$

REGIONAL REPORTS...ALBERTA

CITY           SKY/WX    TMP DP  RH WIND       PRES   REMARKS
EDMONTON       PTCLDY    46  28  49 SE12      29.94F
CALGARY        PTCLDY    39  28  65 S9        29.97F
LETHBRIDGE     CLEAR     30  30 100 SW6       30.01F WCI  24
MEDICINE HAT   CLOUDY    39  34  81 CALM      30.06S
WATERTON GATE    N/A     30  28  93 E2          N/A
CARDSTON         N/A     34  28  80 CALM        N/A
MILK RIVER       N/A     32  34 100 NE2         N/A
ONEFOUR          N/A     37  36  93 NE7         N/A
$$

REGIONAL REPORTS...SASKATCHEWAN

CITY           SKY/WX    TMP DP  RH WIND       PRES   REMARKS
SWIFT CURRENT  CLEAR     32  23  69 SE8       30.10S WCI  25
REGINA         CLEAR     32  16  51 SE10      30.20S WCI  24
SASKATOON      PTCLDY    39  27  60 SE12      30.18S WCI  32
CYPRESS HILLS    N/A     36  30  80 SE3         N/A
VAL MARIE        N/A     28  27  93 E2          N/A
ROCKGLEN         N/A     39  25  56 SE8         N/A
ASSINIBOIA       N/A     43  32  65 SE9         N/A
$$




USA.gov is the U.S. government's official web portal to all federal, state and local government web resources and services.